Weather History for KLVS - September, 2013

Change the Weather History Date:

Wednesday, September 11, 2013

  Actual Average Record
Temperature  
Mean Temperature 60 °F -  
Max Temperature 66 °F 77 °F 87 °F (1956)
Min Temperature 55 °F 49 °F 39 °F (2003)
Degree Days  
Heating Degree Days 4    
Growing Degree Days 10 (Base 50)    
Moisture  
Dew Point 56 °F    
Average Humidity 92    
Maximum Humidity 100    
Minimum Humidity 75    
Precipitation  
Precipitation 1.86 in - - ()
Sea Level Pressure  
Sea Level Pressure 30.21 in    
Wind  
Wind Speed 8 mph (SE)    
Max Wind Speed 20 mph    
Max Gust Speed 22 mph    
Visibility 6 miles    
Events Rain    
Averages and records for this station are not official NWS values.
T = Trace of Precipitation, MM = Missing Value Source: NWS Daily Summary

Daily Weather History Graph

Daily Weather History Graph

Search for Another Location

Airport or City:

Trip Planner

Search our weather history database for the weather conditions in past years. The results will help you decide how hot, cold, wet, or windy it might be!

Date:

Astronomy

Sep. 11, 2013 Rise Set
Actual Time 6:40 AM MDT 7:13 PM MDT
Civil Twilight 6:14 AM MDT 7:38 PM MDT
Nautical Twilight 5:44 AM MDT 8:08 PM MDT
Astronomical Twilight 5:13 AM MDT 8:39 PM MDT
Moon 12:58 PM MDT (9/11) 11:24 PM MDT (9/11)
Length of Visible Light 13h 23m
Length of Day
12h 32m
Waxing Crescent, 39% of the Moon is Illuminated
Sep 11
Waxing Crescent
Sep 12
First Quarter
Sep 19
Full
Sep 26
Last Quarter
Oct 4
New

Hourly Weather History & Observations

Time (MDT) Temp. Dew Point Humidity Pressure Visibility Wind Dir Wind Speed Gust Speed Precip Events Conditions
12:02 AM 55.4 °F 55.4 °F 100% 30.28 in 2.5 mi North 6.9 mph - 0.04 in Rain Heavy Rain
12:19 AM 55.4 °F 55.4 °F 100% 30.28 in 1.5 mi North 4.6 mph - 0.18 in Rain Heavy Rain
12:28 AM 55.4 °F 55.4 °F 100% 30.28 in 1.8 mi NNE 6.9 mph - 0.26 in Rain Heavy Rain
12:50 AM 55.4 °F 55.4 °F 100% 30.28 in 1.5 mi NNE 6.9 mph - 0.41 in Rain Heavy Rain
12:53 AM 55.9 °F 55.9 °F 100% 30.00 in 1.5 mi North 6.9 mph - 0.42 in Rain Heavy Rain
1:16 AM 55.4 °F 55.4 °F 100% 30.28 in 1.8 mi NW 5.8 mph - 0.13 in Rain Heavy Rain
1:31 AM 55.4 °F 55.4 °F 100% 30.28 in 1.8 mi NW 11.5 mph - 0.32 in Rain Heavy Rain
1:36 AM 55.4 °F 55.4 °F 100% 30.28 in 2.0 mi WNW 9.2 mph - 0.35 in Rain Heavy Rain
1:43 AM 55.4 °F 55.4 °F 100% 30.28 in 1.2 mi NNW 8.1 mph - 0.43 in Rain Heavy Rain
1:50 AM 55.4 °F 55.4 °F 100% 30.28 in 2.0 mi NNW 5.8 mph - 0.47 in Rain Heavy Rain
1:53 AM 55.9 °F 55.9 °F 100% 29.99 in 2.5 mi NNW 5.8 mph - 0.47 in Rain Heavy Rain
2:00 AM 55.4 °F 55.4 °F 100% 30.27 in 5.0 mi NNW 5.8 mph - 0.01 in Rain Light Rain
2:15 AM 55.4 °F 55.4 °F 100% 30.27 in 10.0 mi NNW 4.6 mph - 0.01 in Rain Light Rain
2:37 AM 55.4 °F 55.4 °F 100% 30.27 in 10.0 mi NE 5.8 mph - 0.01 in   Overcast
2:53 AM 55.9 °F 55.9 °F 100% 30.01 in 8.0 mi ENE 4.6 mph - 0.02 in Rain Light Rain
3:06 AM 55.4 °F 55.4 °F 100% 30.27 in 9.0 mi ENE 5.8 mph - 0.00 in Rain Light Rain
3:53 AM 57.0 °F 55.9 °F 96% 30.00 in 4.0 mi ESE 11.5 mph - 0.03 in Rain Light Rain
3:56 AM 57.2 °F 55.4 °F 94% 30.25 in 4.0 mi ESE 13.8 mph - 0.00 in Rain Light Rain
4:10 AM 57.2 °F 55.4 °F 94% 30.26 in 4.0 mi ESE 9.2 mph - 0.01 in Rain Light Rain
4:12 AM 57.2 °F 55.4 °F 94% 30.26 in 4.0 mi ESE 10.4 mph - 0.01 in Rain Light Rain
4:23 AM 55.4 °F 55.4 °F 100% 30.26 in 2.5 mi SE 13.8 mph 21.9 mph 0.04 in Rain Rain
4:34 AM 55.4 °F 55.4 °F 100% 30.25 in 4.0 mi SE 18.4 mph - 0.06 in Rain Rain
4:48 AM 57.2 °F 55.4 °F 94% 30.25 in 6.0 mi SE 16.1 mph - 0.07 in Rain Light Rain
4:53 AM 55.9 °F 55.0 °F 97% 30.00 in 5.0 mi SE 16.1 mph - 0.08 in Rain Rain
5:08 AM 57.2 °F 55.4 °F 94% 30.25 in 8.0 mi SE 19.6 mph - 0.01 in Rain Light Rain
5:21 AM 57.2 °F 55.4 °F 94% 30.25 in 10.0 mi SSE 16.1 mph - 0.01 in Rain Light Rain
5:50 AM 57.2 °F 55.4 °F 94% 30.26 in 4.0 mi SSE 10.4 mph - 0.04 in Rain Light Rain
5:53 AM 57.0 °F 55.0 °F 93% 30.01 in 3.0 mi SSE 9.2 mph - 0.04 in Rain Light Rain
6:01 AM 57.2 °F 55.4 °F 94% 30.26 in 2.5 mi SSE 8.1 mph - 0.01 in Rain Light Rain
6:13 AM 57.2 °F 55.4 °F 94% 30.26 in 4.0 mi SSE 12.7 mph 17.3 mph 0.01 in Rain Light Rain
6:34 AM 57.2 °F 55.4 °F 94% 30.26 in 2.0 mi SE 12.7 mph - 0.05 in Rain Heavy Rain
6:51 AM 57.2 °F 55.4 °F 94% 30.27 in 4.0 mi SSE 8.1 mph - 0.11 in Rain Rain
6:53 AM 57.0 °F 55.9 °F 96% 30.03 in 4.0 mi SSE 10.4 mph - 0.11 in Rain Rain
7:10 AM 57.2 °F 55.4 °F 94% 30.27 in 1.8 mi Calm Calm - 0.11 in Rain Heavy Rain
7:20 AM 57.2 °F 55.4 °F 94% 30.28 in 0.8 mi Calm Calm - 0.28 in Rain Heavy Rain
7:28 AM 57.2 °F 55.4 °F 94% 30.28 in 1.5 mi Calm Calm - 0.32 in Rain Heavy Rain
7:35 AM 57.2 °F 55.4 °F 94% 30.28 in 3.0 mi Calm Calm - 0.33 in Rain Rain
7:40 AM 57.2 °F 55.4 °F 94% 30.28 in 2.5 mi Variable 3.5 mph - 0.35 in Rain Heavy Rain
7:48 AM 57.2 °F 55.4 °F 94% 30.28 in 3.0 mi Calm Calm - 0.35 in Rain Rain
7:53 AM 57.0 °F 55.9 °F 96% 30.04 in 6.0 mi Calm Calm - 0.36 in Rain Light Rain
8:22 AM 57.2 °F 57.2 °F 100% 30.29 in 2.0 mi South 5.8 mph - 0.04 in Rain Rain
8:32 AM 57.2 °F 57.2 °F 100% 30.29 in 2.5 mi South 4.6 mph - 0.07 in Rain Heavy Rain
8:44 AM 57.2 °F 57.2 °F 100% 30.29 in 3.0 mi West 3.5 mph - 0.10 in Rain Rain
8:53 AM 57.0 °F 55.9 °F 96% 30.05 in 3.0 mi West 4.6 mph - 0.11 in Rain Light Rain
9:53 AM 59.0 °F 57.9 °F 96% 30.06 in 9.0 mi South 8.1 mph - 0.10 in Rain Light Rain
10:20 AM 57.2 °F 57.2 °F 100% 30.31 in 2.5 mi South 12.7 mph - 0.05 in Rain Light Rain
10:28 AM 57.2 °F 57.2 °F 100% 30.31 in 4.0 mi SSE 13.8 mph - 0.05 in Rain Light Rain
10:50 AM 57.2 °F 55.4 °F 94% 30.31 in 6.0 mi SSE 12.7 mph - 0.08 in Rain Rain
10:53 AM 57.0 °F 55.9 °F 96% 30.07 in 5.0 mi SE 13.8 mph - 0.08 in Rain Rain
11:53 AM 61.0 °F 57.9 °F 90% 30.05 in 10.0 mi SE 6.9 mph - 0.04 in   Overcast
12:09 PM 62.6 °F 57.2 °F 82% 30.31 in 10.0 mi SE 9.2 mph - N/A   Overcast
12:34 PM 62.6 °F 57.2 °F 82% 30.31 in 10.0 mi SSE 8.1 mph - N/A   Mostly Cloudy
12:49 PM 62.6 °F 57.2 °F 82% 30.31 in 10.0 mi SE 11.5 mph - N/A   Overcast
12:53 PM 62.1 °F 57.9 °F 86% 30.05 in 10.0 mi SSE 9.2 mph - N/A   Overcast
1:14 PM 62.6 °F 57.2 °F 82% 30.30 in 10.0 mi South 10.4 mph - 0.00 in   Overcast
1:23 PM 62.6 °F 57.2 °F 82% 30.30 in 10.0 mi South 9.2 mph - 0.00 in   Overcast
1:53 PM 64.0 °F 57.9 °F 80% 30.04 in 10.0 mi South 8.1 mph - 0.00 in   Overcast
2:01 PM 64.4 °F 57.2 °F 77% 30.30 in 10.0 mi SSE 9.2 mph - N/A   Overcast
2:25 PM 64.4 °F 57.2 °F 77% 30.29 in 10.0 mi SSE 11.5 mph - N/A   Mostly Cloudy
2:32 PM 64.4 °F 57.2 °F 77% 30.29 in 10.0 mi SSE 12.7 mph - N/A   Mostly Cloudy
2:40 PM 64.4 °F 57.2 °F 77% 30.29 in 10.0 mi SE 10.4 mph - N/A   Mostly Cloudy
2:46 PM 64.4 °F 57.2 °F 77% 30.29 in 10.0 mi SE 11.5 mph - N/A   Scattered Clouds
2:53 PM 66.0 °F 59.0 °F 78% 30.01 in 10.0 mi SE 9.2 mph - N/A   Mostly Cloudy
3:01 PM 64.4 °F 57.2 °F 77% 30.29 in 10.0 mi SE 11.5 mph - N/A   Mostly Cloudy
3:27 PM 64.4 °F 57.2 °F 77% 30.29 in 10.0 mi SSE 10.4 mph - N/A   Scattered Clouds
3:53 PM 64.0 °F 55.9 °F 75% 30.01 in 10.0 mi SE 10.4 mph - N/A   Clear
4:53 PM 63.0 °F 55.0 °F 75% 30.01 in 10.0 mi East 6.9 mph - N/A   Clear
5:53 PM 62.1 °F 55.0 °F 78% 30.03 in 10.0 mi ESE 9.2 mph - N/A   Partly Cloudy
6:53 PM 60.1 °F 55.9 °F 86% 30.05 in 10.0 mi SE 8.1 mph - N/A   Overcast
7:00 PM 59.0 °F 57.2 °F 94% 30.30 in 10.0 mi SSE 12.7 mph - N/A   Overcast
7:10 PM 59.0 °F 57.2 °F 94% 30.31 in 10.0 mi South 12.7 mph - N/A   Overcast
7:51 PM 57.2 °F 55.4 °F 94% 30.32 in 10.0 mi SSE 15.0 mph - N/A   Overcast
7:53 PM 57.0 °F 55.0 °F 93% 30.09 in 10.0 mi SSE 13.8 mph - N/A   Overcast
8:53 PM 57.0 °F 55.0 °F 93% 30.10 in 10.0 mi SSE 12.7 mph - N/A   Mostly Cloudy
9:53 PM 57.0 °F 55.0 °F 93% 30.09 in 10.0 mi Calm Calm - N/A   Overcast
10:29 PM 57.2 °F 55.4 °F 94% 30.34 in 10.0 mi WNW 4.6 mph - N/A   Mostly Cloudy
10:53 PM 57.0 °F 55.9 °F 96% 30.10 in 10.0 mi WSW 3.5 mph - N/A   Mostly Cloudy
11:53 PM 57.0 °F 55.0 °F 93% 30.07 in 10.0 mi Calm Calm - N/A   Mostly Cloudy